Location: Boncourt
(49.6160°N, 3.9448°E)
Time: 12:19:30
(UTC+00:00)

BlueWalker 3 - Pass Details

Date: 09 February 2023
Orbit: 497 x 515 km, 53.2° (Epoch: 22 March)

Event Time Altitude Azimuth Distance (km) Brightness Sun altitude
Rises 18:15:27 0° 293° (WNW) 2,604 6.7 -13.8°
Reaches altitude 10° 18:17:39 10° 292° (WNW) 1,720 5.7 -14.1°
Maximum altitude 18:21:31 75° 208° (SSW) 530 2.0 -14.8°
Enters shadow 18:23:59 21° 125° (SE) 1,167 3.3 -15.2°
